{"data":{"norad_id":59023,"epoch":"2026-05-25T03:57:15.187104Z","epoch_age_seconds":64817,"freshness":"FRESH","line1":"1 59023U 24038A   26145.16475911  .00001444  00000+0  61993-4 0  9992","line2":"2 59023  43.0003 315.1641 0001303 271.0062  89.0640 15.27578091127829","mean_motion":15.27578091,"eccentricity":0.0001303,"inclination_deg":43.0003,"raan_deg":315.1641,"arg_perigee_deg":271.0062,"mean_anomaly_deg":89.064,"bstar":6.1993e-5,"rev_number":12782,"period_min":94.266866517923,"perigee_km":482.16079898522,"apogee_km":483.9488255715,"semimajor_km":6861.1918122784,"source":"CELESTRAK","updated_at":"2026-05-25T13:38:18.822069Z"}}